• In Czech Republic
  • List of Countries
  • For 7 days
  • Water Temperature
  • Satellite Maps
  • Weather Map
  • Weather Widgets
  • user-avatar
    Login

    Hourly Weather Thunder Bay

    Today, 24 June, Sunday

    Time Temperature Precipitation Wind Pressure Humidity
    00:00 +8°C° 0 mm 3 mps 736 mmHg 88%
    01:00 +7°C° 0.1 mm 4 mps 737 mmHg 90%
    02:00 +7°C° 0.1 mm 4 mps 737 mmHg 92%
    03:00 +7°C° 0.1 mm 4 mps 737 mmHg 93%
    04:00 +7°C° 0 mm 4 mps 738 mmHg 93%
    05:00 +7°C° 0 mm 4 mps 738 mmHg 92%
    06:00 +9°C° 0 mm 3 mps 739 mmHg 94%
    07:00 +9°C° 0 mm 3 mps 739 mmHg 89%
    08:00 +10°C° 0 mm 4 mps 739 mmHg 83%
    09:00 +11°C° 0 mm 4 mps 740 mmHg 78%
    10:00 +12°C° 0 mm 4 mps 740 mmHg 67%
    11:00 +14°C° 0 mm 4 mps 740 mmHg 56%
    12:00 +17°C° 0 mm 4 mps 741 mmHg 46%
    13:00 +17°C° 0 mm 3 mps 741 mmHg 43%
    14:00 +17°C° 0 mm 3 mps 741 mmHg 41%
    15:00 +18°C° 0 mm 3 mps 741 mmHg 38%
    16:00 +17°C° 0 mm 2 mps 741 mmHg 40%
    17:00 +16°C° 0 mm 2 mps 741 mmHg 41%
    18:00 +16°C° 0 mm 2 mps 741 mmHg 43%
    19:00 +14°C° 0 mm 1 mps 741 mmHg 47%
    20:00 +12°C° 0 mm 1 mps 741 mmHg 51%
    21:00 +10°C° 0 mm 1 mps 741 mmHg 55%
    22:00 +9°C° 0 mm 1 mps 742 mmHg 55%
    23:00 +9°C° 0 mm 1 mps 742 mmHg 54%

    Tomorrow, 25 June, Monday

    Time Temperature Precipitation Wind Pressure Humidity
    00:00 +9°C° 0 mm 1 mps 742 mmHg 54%
    01:00 +9°C° 0 mm 1 mps 742 mmHg 54%
    02:00 +8°C° 0 mm 2 mps 742 mmHg 53%
    03:00 +8°C° 0 mm 2 mps 742 mmHg 53%
    04:00 +8°C° 0 mm 2 mps 743 mmHg 54%
    05:00 +9°C° 0 mm 2 mps 743 mmHg 54%
    06:00 +10°C° 0 mm 2 mps 744 mmHg 54%
    07:00 +12°C° 0 mm 2 mps 744 mmHg 50%
    08:00 +13°C° 0 mm 3 mps 744 mmHg 45%
    09:00 +14°C° 0 mm 3 mps 744 mmHg 41%
    10:00 +16°C° 0 mm 3 mps 743 mmHg 40%
    11:00 +15°C° 0 mm 4 mps 743 mmHg 39%
    12:00 +17°C° 0 mm 4 mps 743 mmHg 37%
    13:00 +17°C° 0 mm 4 mps 743 mmHg 38%
    14:00 +17°C° 0 mm 4 mps 742 mmHg 38%
    15:00 +16°C° 0 mm 3 mps 742 mmHg 38%
    16:00 +16°C° 0 mm 3 mps 742 mmHg 40%
    17:00 +14°C° 0 mm 3 mps 741 mmHg 42%
    18:00 +14°C° 0 mm 2 mps 741 mmHg 44%
    19:00 +13°C° 0 mm 2 mps 741 mmHg 46%
    20:00 +10°C° 0 mm 2 mps 741 mmHg 48%
    21:00 +9°C° 0 mm 2 mps 740 mmHg 51%
    22:00 +9°C° 0 mm 2 mps 740 mmHg 51%
    23:00 +9°C° 0 mm 2 mps 740 mmHg 52%

    Day after tomorrow, 26 June, Tuesday

    Time Temperature Precipitation Wind Pressure Humidity
    00:00 +9°C° 0 mm 1 mps 740 mmHg 53%
    01:00 +9°C° 0 mm 1 mps 740 mmHg 57%
    02:00 +9°C° 0 mm 1 mps 739 mmHg 61%
    03:00 +9°C° 0 mm 1 mps 739 mmHg 66%
    04:00 +10°C° 0 mm 1 mps 739 mmHg 68%
    05:00 +11°C° 0 mm 1 mps 739 mmHg 71%
    06:00 +12°C° 0 mm 1 mps 739 mmHg 73%
    07:00 +14°C° 0 mm 2 mps 738 mmHg 68%
    08:00 +16°C° 0 mm 2 mps 738 mmHg 63%
    09:00 +18°C° 0 mm 2 mps 738 mmHg 59%
    10:00 +19°C° 0 mm 3 mps 738 mmHg 56%
    11:00 +19°C° 0 mm 3 mps 737 mmHg 54%
    12:00 +20°C° 0 mm 4 mps 737 mmHg 51%
    13:00 +20°C° 0 mm 4 mps 737 mmHg 51%
    14:00 +19°C° 0 mm 4 mps 736 mmHg 52%
    15:00 +19°C° 0 mm 4 mps 736 mmHg 52%
    16:00 +18°C° 0 mm 4 mps 735 mmHg 53%
    17:00 +17°C° 0 mm 3 mps 735 mmHg 55%
    18:00 +16°C° 0 mm 3 mps 735 mmHg 56%
    19:00 +13°C° 0 mm 3 mps 735 mmHg 60%
    20:00 +12°C° 0 mm 2 mps 735 mmHg 63%
    21:00 +9°C° 0 mm 2 mps 735 mmHg 67%
    22:00 +9°C° 0 mm 2 mps 734 mmHg 66%
    23:00 +9°C° 0 mm 2 mps 734 mmHg 66%

    27 June, Wednesday

    Time Temperature Precipitation Wind Pressure Humidity
    00:00 +10°C° 0 mm 1 mps 734 mmHg 66%
    01:00 +10°C° 0 mm 1 mps 734 mmHg 67%
    02:00 +10°C° 0 mm 1 mps 733 mmHg 68%
    03:00 +10°C° 0 mm 1 mps 733 mmHg 69%
    04:00 +11°C° 0 mm 1 mps 733 mmHg 68%
    05:00 +12°C° 0 mm 1 mps 733 mmHg 67%
    06:00 +13°C° 0 mm 1 mps 734 mmHg 66%
    07:00 +15°C° 0 mm 1 mps 733 mmHg 61%
    08:00 +19°C° 0 mm 1 mps 733 mmHg 56%
    09:00 +21°C° 0 mm 1 mps 733 mmHg 51%
    10:00 +22°C° 0 mm 1 mps 733 mmHg 49%
    11:00 +23°C° 0 mm 2 mps 733 mmHg 46%
    12:00 +24°C° 0 mm 2 mps 733 mmHg 44%
    13:00 +24°C° 0 mm 2 mps 732 mmHg 44%
    14:00 +24°C° 0 mm 3 mps 732 mmHg 45%
    15:00 +24°C° 0 mm 3 mps 731 mmHg 45%
    16:00 +22°C° 0 mm 3 mps 731 mmHg 51%
    17:00 +21°C° 0 mm 3 mps 731 mmHg 56%
    18:00 +20°C° 0 mm 3 mps 731 mmHg 61%
    19:00 +19°C° 0 mm 3 mps 731 mmHg 69%
    20:00 +17°C° 0 mm 3 mps 731 mmHg 77%
    21:00 +15°C° 0 mm 2 mps 731 mmHg 85%
    22:00 +16°C° 0 mm 2 mps 731 mmHg 88%
    23:00 +16°C° 0 mm 2 mps 731 mmHg 91%

    28 June, Thursday

    Time Temperature Precipitation Wind Pressure Humidity
    00:00 +16°C° 0 mm 2 mps 731 mmHg 94%
    01:00 +16°C° 0 mm 2 mps 731 mmHg 95%
    02:00 +16°C° 0 mm 2 mps 732 mmHg 96%
    03:00 +15°C° 0 mm 2 mps 732 mmHg 97%
    04:00 +15°C° 0 mm 2 mps 732 mmHg 93%
    05:00 +16°C° 0 mm 2 mps 732 mmHg 89%
    06:00 +16°C° 0 mm 2 mps 733 mmHg 85%
    07:00 +20°C° 0 mm 1 mps 733 mmHg 72%
    08:00 +22°C° 0 mm 1 mps 733 mmHg 59%
    09:00 +23°C° 0 mm 0 mps 733 mmHg 47%
    10:00 +26°C° 0 mm 1 mps 733 mmHg 44%
    11:00 +26°C° 0 mm 2 mps 733 mmHg 42%
    12:00 +27°C° 0 mm 3 mps 733 mmHg 40%
    13:00 +27°C° 0 mm 3 mps 732 mmHg 41%
    14:00 +27°C° 0 mm 3 mps 732 mmHg 42%
    15:00 +28°C° 0 mm 3 mps 731 mmHg 43%
    16:00 +27°C° 0 mm 3 mps 731 mmHg 47%
    17:00 +26°C° 0 mm 3 mps 731 mmHg 52%
    18:00 +25°C° 0 mm 3 mps 731 mmHg 57%
    19:00 +22°C° 0 mm 3 mps 731 mmHg 66%
    20:00 +20°C° 0 mm 3 mps 731 mmHg 74%
    21:00 +18°C° 0 mm 3 mps 731 mmHg 83%
    22:00 +18°C° 0.1 mm 3 mps 731 mmHg 84%
    23:00 +17°C° 0.1 mm 2 mps 731 mmHg 86%

    29 June, Friday

    Time Temperature Precipitation Wind Pressure Humidity
    00:00 +16°C° 0.1 mm 2 mps 731 mmHg 88%
    01:00 +16°C° 1.1 mm 2 mps 731 mmHg 91%
    02:00 +16°C° 1.1 mm 2 mps 731 mmHg 95%
    03:00 +15°C° 1.1 mm 1 mps 731 mmHg 98%
    04:00 +16°C° 0.3 mm 2 mps 730 mmHg 98%
    05:00 +16°C° 0.3 mm 3 mps 730 mmHg 98%
    06:00 +16°C° 0.3 mm 3 mps 730 mmHg 99%
    07:00 +15°C° 2.5 mm 4 mps 730 mmHg 99%
    08:00 +17°C° 2.5 mm 4 mps 729 mmHg 99%
    09:00 +16°C° 2.5 mm 5 mps 728 mmHg 99%
    10:00 +18°C° 0.2 mm 4 mps 729 mmHg 96%
    11:00 +19°C° 0.2 mm 2 mps 729 mmHg 93%
    12:00 +22°C° 0.2 mm 1 mps 729 mmHg 90%
    13:00 +23°C° 0 mm 1 mps 729 mmHg 86%
    14:00 +24°C° 0 mm 1 mps 729 mmHg 81%
    15:00 +25°C° 0 mm 1 mps 730 mmHg 76%
    16:00 +24°C° 0.2 mm 1 mps 730 mmHg 82%
    17:00 +23°C° 0.2 mm 1 mps 730 mmHg 88%
    18:00 +21°C° 0.2 mm 1 mps 730 mmHg 94%
    19:00 +20°C° 0 mm 1 mps 731 mmHg 95%
    20:00 +20°C° 0 mm 1 mps 731 mmHg 97%
    21:00 +19°C° 0 mm 1 mps 731 mmHg 99%
    22:00 +19°C° 0 mm 1 mps 731 mmHg 99%
    23:00 +18°C° 0 mm 1 mps 731 mmHg 99%
    Show more